Showing default

HULIANWANG DIGUI-69, 65229

Orbit data source: Space-Track

HULIANWANG DIGUI-69, 65229 is a payload satellite owned by Zhongguo Xingwang (CN) in LEO that was launched on Sun, 17 Aug 2025 UTC via a CHANG ZHENG 6A launch vehicle from the Taiyaun Space Center, China (TSC). Payload-class satellites include a variety of spacecraft equipped with specific instruments for various scientific and technological missions. These include communications satellites like Starlink; space stations such as the ISS; scientific satellites like the Hubble; Earth observation satellites from companies like Planet Labs, Umbra, and HawkEye 360; GPS; miniature CubeSats for education and research; and military/defense satellites.

Loading next visibility...
Identifier
65229, 2025-178B
Orbit
LEO
Country
Flag of CNCN / PRC
Related business
Manufacturer
CAST
Mission
Operational Civil Communications
Bus & Motor
XINGWANG C, Unknown motor
Mass
~800 kg wet, ~800 kg dry
Launch date (UTC)
2025-08-17 (10 months ago)
Launch vehicle
CHANG ZHENG 6A
Launch site
Taiyaun Space Center, China (TSC)
Object type
Payload
Rocket body
Debris
Shape & HBR
Box + 2 Pan, 2.4 m
Radar Cross Section
5.935 m², Large (>1 m²)

Expand to show TLE details & history
Last TLE update: 11 hours ago

TLE from 11 hours ago
0 HULIANWANG DIGUI-69
1 65229U 25178B   26171.44708566  .00000021  00000-0  15696-4 0  9998
2 65229  86.5000  12.4799 0001893  90.7006 269.4345 13.24412065 40746
Epoch: 2026-06-20T10:43Z
TLE epoch observation values (Epoch: 2026-06-20T10:43:48.201Z)
Latitude
0.00001°
Longitude
-57.13252°
Altitude
1,170.823 km
Speed
7.268 km/s
True Right ascension
00h 49m 55s
True Declination
0° 00' 00"
Sunlit
Object was in daylight at epoch
Visualization orbit readout
Latitude
Unknown
Longitude
Unknown
Altitude
Unknown
Speed
Unknown
Apparent Right ascension
Unknown
Apparent Declination
Unknown
Sunlit
N/A
Visualization observer readout
Local Sidereal Time
08:32:26
Azimuth
Unknown
Elevation
Unknown
Doppler factor
Unknown
Orbital elements
Apogee altitude
1,166.462 km
Perigee altitude
1,163.606 km
Semi-major axis
7,543.171 km
Eccentricity
0.00019
Inclination
86.5°
RAAN
12.4799°
Arg. of periapsis
90.7006°
True anomaly
269.41281°
Mean anomaly
269.4345°
Eccentric anomaly
269.42365°
Mean motion
3.31293 °/min
Orbital period
108.67 mins
BSTAR
0.000015696
Loading maneuver chart data...
Computing Atmospheric mass density...
Loading historical data...
Loading historical data...
Loading historical data...
Loading historical data...
Loading historical data...
Loading historical data...
Loading historical data...

Documentation

Showing up to 5 results
|